Regional Weather Roundup
Issued by NWS

Home | Current Version | Previous Version | Text Only | Print | Product List | Glossary Off
Versions: 1 2 3 4 5 6 7 8 9 10 11 12 13 14 15 16 17 18 19 20 21 22 23 24 25 26 27 28 29 30 31 32 33 34 35 36 37 38 39 40 41 42 43 44 45 46 47 48 49 50

000
ASUS43 KDMX 230907
RWRIA

WEATHER ROUNDUP FOR IOWA
NATIONAL WEATHER SERVICE DES MOINES IA
400 AM CDT WED JUL 23 2014

NOTE: "FAIR" INDICATES FEW OR NO CLOUDS BELOW 12,000 FEET WITH NO
SIGNIFICANT WEATHER AND/OR OBSTRUCTIONS TO VISIBILITY.

* - THESE STATIONS ARE NOT NWS STATIONS...THUS NOT UNDER NWS
QUALITY CONTROL.  THEY ALSO DO NOT REPORT WEATHER SUCH
AS PRECIPITATION OR FOG.

IAZ001>003-012>014-020>022-031>034-043>046-231000-
   NORTHWEST IOWA

CITY           SKY/WX    TMP DP  RH WIND       PRES   REMARKS
CARROLL *      CLEAR     59  57  94 N3        30.19S
CHEROKEE *     CLEAR     59  59 100 NE5       30.22R
DENISON *      CLEAR     63  57  82 NE6       30.18F
LE MARS *      CLEAR     59  57  94 CALM      30.22F
ORANGE CITY *  CLEAR     64  54  68 NE5       30.23S
SHELDON *      CLEAR     57  55  94 N5        30.22S
SIOUX CITY     PTCLDY    66  58  75 NE7       30.21S
SPENCER        CLEAR     61  56  83 N7        30.22S
STORM LAKE *   CLEAR     63  59  88 N8        30.22R
$$

IAZ055>058-069>071-079>083-090>094-231000-
   SOUTHWEST IOWA

CITY           SKY/WX    TMP DP  RH WIND       PRES   REMARKS
ATLANTIC *     CLEAR     64  59  82 NE3       30.18F
AUDUBON *      CLEAR     64  61  88 N5        30.19F
CLARINDA *     CLEAR     66  66 100 N6        30.18R
COUNCIL BLFS * MOCLDY    66  61  82 NE8       30.17F
CRESTON *      CLEAR     66  61  82 N14       30.17R
HARLAN  *      CLEAR     63  59  88 N5        30.22F
LAMONI         CLEAR     68  64  87 N8        30.14S
RED OAK *      CLEAR     64  61  88 N6        30.18R
SHENANDOAH *   CLEAR     66  63  88 N6        30.17S
$$

IAZ047>049-059>061-072>074-084-231000-
   CENTRAL IOWA

CITY           SKY/WX    TMP DP  RH WIND       PRES   REMARKS
AMES           CLEAR     64  59  83 N8        30.16S
ANKENY *       CLEAR     66  61  82 N8        30.16R
CHARITON *     CLEAR     66  64  94 N5        30.14S
DES MOINES     PTCLDY    70  59  68 N10       30.15R
GRINNELL*      CLEAR     64  63  94 N5        30.15S
KNOXVILLE *    CLEAR     70  63  78 N8        30.13S
MARSHALLTOWN   CLEAR     62  60  93 N6        30.15S
PELLA *        CLEAR     66  63  88 N3        30.14S
PERRY *          N/A     63  59  88 N5        30.18S
$$

IAZ004>006-015-016-023>025-035-036-231000-
   NORTH CENTRAL IOWA

CITY           SKY/WX    TMP DP  RH WIND       PRES   REMARKS
ALGONA *       CLEAR     59  55  88 N3        30.20S
CLARION *      CLEAR     57  57 100 N5        30.19S
ESTHERVILLE    CLEAR     58  54  86 N8        30.22R
FORT DODGE *   CLEAR     61  55  82 N6        30.20S
MASON CITY     CLEAR     58  55  90 NW6       30.20R
FOREST CITY *  CLEAR     61  55  82 N6        30.19S
IOWA FALLS *     N/A     61  57  88 N6        30.18S
$$

IAZ007>011-017>019-026>030-037>042-050>054-066-231000-
   NORTHEAST IOWA

CITY           SKY/WX    TMP DP  RH WIND       PRES   REMARKS
CEDAR RAPIDS   CLEAR     66  62  87 N7        30.12R
CHARLES CITY * CLEAR     63  59  88 N5        30.18R
DECORAH *      PTCLDY    64  63  94 CALM      30.17R
DUBUQUE        CLEAR     66  61  84 NE8       30.13R
MONTICELLO *   CLEAR     64  63  94 CALM      30.13R
OELWEIN *      CLEAR     63  61  94 NE5       30.16S
WATERLOO       CLEAR     63  60  90 N3        30.15R
$$

IAZ064-065-067-068-078-231000-
   EAST CENTRAL IOWA

CITY           SKY/WX    TMP DP  RH WIND       PRES   REMARKS
DAVENPORT      CLEAR     69  65  86 N10       30.09R
IOWA CITY      CLEAR     71  65  81 N8        30.12S
MT. PLEASANT * CLEAR     70  66  88 N8        30.09S
MUSCATINE *    CLEAR     72  64  78 N8        30.09R
QUAD CITIES    CLEAR     73  65  75 N7        30.07R
$$

IAZ062-063-075>077-085>089-095>099-231000-
   SOUTHEAST IOWA

CITY           SKY/WX    TMP DP  RH WIND       PRES   REMARKS
BURLINGTON     CLEAR     72  68  87 N10       30.07R
FAIRFIELD *    CLEAR     68  64  88 N7        30.11S
FORT MADISON * CLEAR     72  70  94 N7        30.08S
KEOKUK *       CLEAR     73  70  88 N10       30.06S
OSKALOOSA *      N/A     66  64  94 N6        30.12F
CENTERVILLE *  CLEAR     68  68 100 N7        30.14S
OTTUMWA        CLEAR     66  64  93 N7        30.11F
WASHINGTON *   CLEAR     70  66  88 N9        30.10S
$$

ABBREVIATIONS USED IN REMARKS
   TC - TEMPERATURES IN CELSIUS
  WCI - WIND CHILL INDEX
   HX - HEAT INDEX
  VSB - VISIBILITY
$$



USA.gov is the U.S. government's official web portal to all federal, state and local government web resources and services.